sat.trackr.live / text

‹ back to catalog

ASTROCAST-0101

NORAD 47430 · 2021-006T

PAYLOAD ACTIVE UNKNOWN

§ Identity

Operator
Country
SWTZ
Launch date
2021-01-24
Launch site
AFETR
Launch vehicle
Mass (kg)
RCS (m²)

External: N2YO · Heavens-Above · Gunter

§ Orbital elements

Epoch: 2026-06-28T19:36:27.197280Z

Period
88.69 min
Inclination
97.2027°
Eccentricity
0.0015329
Mean motion
16.23711460 rev/d
Perigee alt
199.4 km
Apogee alt
219.6 km
Semi-major
6,587.6 km
B*
1.9512e-3
RAAN
249.7266°
Arg perigee
265.1088°
Mean anomaly
94.8453°
Rev number
30,182

§ Raw data

ASTROCAST-01011 47430U 21006T   26179.81698145  .05040908  23401-5  19512-2 0  99952 47430  97.2027 249.7266 0015329 265.1088  94.8453 16.23711460301821

JSON: /api/v1/satellites/47430 · /tle

For live sub-satellite position, see the globe view (requires WebGL).

§ Visibility from observer

Set your observer location to see the next 7 days of passes ≥ 10°. The values pass through the URL so the page stays shareable.

No JS? Fill the form by hand. The geolocation button needs JavaScript.

§ Radio — SatNOGS DB

ModeDescriptionDownlinkUplink
QPSK L-band telemetry 1.531 GHz

1 transmitter · refreshed weekly from db.satnogs.org